Tracking 31027 objects as of 19-Jul-2025
HD Live streaming from Space Station
objects crossing your sky now

SL-16 DEB

Track SL-16 DEB now!
10-day predictions


NORAD ID: 39849
Int'l Code: 1992-093LB
Perigee: 821.3 km
Apogee: 942.1 km
Inclination: 70.9 °
Period: 102.4 minutes
Semi major axis: 7252 km
RCS: 0.0125 m2 (small)
Launch date: December 25, 1992
Source: Commonwealth of Independent States (former USSR) (CIS)
Launch site: TYURATAM MISSILE AND SPACE COMPLEX (TTMTR)

Note: This is SATELLITE DEBRIS
Your satellite tracking list
STARLINK-5403
Track 1 satellite(s)




NASA's NSSDC Master Catalog

Two Line Element Set (TLE):
1 39849U 92093LB  25193.76243515  .00000425  00000-0  28154-3 0  9993
2 39849  70.8631 203.5068 0083266   1.8900 358.2514 14.05581526569406
Source of the keplerian elements: AFSPC